Regional Weather Roundup
Issued by NWS Jackson, KY

Home | Current Version | Previous Version | Text Only | Print | Product List | Glossary Off
Versions: 1 2 3 4 5 6 7 8 9 10 11 12 13 14 15 16 17 18 19 20 21 22 23 24 25 26 27 28 29 30 31 32 33 34 35 36 37 38 39 40 41 42 43 44 45 46 47 48 49 50

000
ASUS43 KJKL 201011
RWRJKL

EAST KENTUCKY HOURLY WEATHER ROUNDUP
NATIONAL WEATHER SERVICE JACKSON KY
600 AM EDT MON OCT 20 2014

NOTE: "FAIR" INDICATES FEW OR NO CLOUDS BELOW 12,000 FEET WITH
NO SIGNIFICANT WEATHER AND/OR OBSTRUCTIONS TO VISIBILITY.

* THESE REPORTS ARE NOT UNDER NWS QUALITY CONTROL AND MAY NOT
  REPORT WEATHER SUCH AS PRECIPITATION AND FOG.

KYZ079-080-083-085-087-088-110-112-115-119-120-201100
...EASTERN KENTUCKY...

CITY           SKY/WX    TMP DP  RH WIND       PRES   REMARKS
JACKSON        PTCLDY    42  39  89 CALM      30.06S
LONDON         PTCLDY    42  39  89 CALM      30.07S
SOMERSET*      MOCLDY    41  41 100 CALM      30.09R
MONTICELLO*    CLEAR     40  39  96 CALM      30.09S FOG
WILLIAMSBURG*  CLEAR     41  41 100 CALM      30.07
MIDDLESBORO*   CLOUDY    42  41  99 CALM      30.10R
HARLAN APT*    CLOUDY    41  41 100 CALM      30.09R VSB 1/4
HAZARD APT*    SUNNY     41  41 100 CALM      30.07R
BLACK MTN*       N/A     45  37  76 S9          N/A
PIKEVILLE APT* CLEAR     41  39  93 S5        30.06S
BIG SANDY*     MOSUNNY   41  40  97 CALM      30.06S
MOREHEAD APT*  MOSUNNY   43  41  93 S3        30.08R
$$

KYZ035-036-041-042-044-050-067-078-099-201100
...CENTRAL KENTUCKY...

CITY           SKY/WX    TMP DP  RH WIND       PRES   REMARKS
MT STERLING*   PTCLDY    39  37  93 SW6       30.07R WCI  35
FLEMING/MASON* CLEAR     43  39  87 S7        30.05F
DANVILLE*      PTCLDY    37  37 100 CALM      30.07S
RICHMOND*      PTCLDY    41  37  87 S3        30.06R
LEXINGTON      MOCLDY    47  41  80 S5        30.05S
FRANKFORT      CLOUDY    45  42  89 CALM      30.04F
$$

KYZ091>093-OHZ055-061-077-WVZ005-015-034-035-042-201100
...SOUTHERN OHIO/WEST VIRGINIA...

CITY           SKY/WX    TMP DP  RH WIND       PRES   REMARKS
COVINGTON      CLOUDY    46  42  86 S6        30.01F
COLUMBUS       CLOUDY    45  39  79 S6        30.00F
DAYTON         CLOUDY    48  41  76 S9        29.99F
WILMINGTON     CLOUDY    45  40  82 S8        30.01S
HUNTINGTON     MOCLDY    39  38  96 CALM      30.05F
CHARLESTON     PTCLDY    37  36  96 CALM      30.07S FOG
PINEVILLE*     FOG       38  38 100 MISG      30.13S VSB 1/2
BECKLEY        PTCLDY    36  32  85 S7        30.07S WCI  30
BLUEFIELD      MOCLDY    48  31  51 SW3       30.08R
$$

VAZ002-007-008-TNZ017-027-036-066-071-201100
...SOUTHWEST VIRGINIA/EAST TENNESSEE...

CITY           SKY/WX    TMP DP  RH WIND       PRES   REMARKS
WISE*          MOCLDY    45  36  70 CALM      30.08S
JONESVILLE*    PTSUNNY   39  39 100 CALM      30.11R
ABINGDON*      CLOUDY    41  39  92 E5        30.09S
BRISTOL        CLOUDY    41  39  93 CALM      30.10S
KNOXVILLE      MOCLDY    46  44  93 NW3       30.08S
OAK RIDGE      MOCLDY    46  43  89 CALM      30.10S
CROSSVILLE     PTCLDY    45  41  86 CALM      30.09R
NASHVILLE      PTCLDY    45  44  97 S3        30.08R
$$

...KEY TO REMARKS...
VSB - VISIBILITY IN MILES
WCI - WIND CHILL INDEX
HX  - HEAT INDEX

$$


USA.gov is the U.S. government's official web portal to all federal, state and local government web resources and services.